When you browse on this site, cookies collect data to enhance your experience and personalize the content and advertising you see.
Visit our Privacy Policy to learn more. By continuing to use the site, you agree to this use of cookies and data.
  • In Czech Republic
  • List of Countries
  • For 7 days
  • Water Temperature
  • Weather Map
  • Weather Widgets
  • user-avatar
    Login

    Hourly Weather Barisal

    Today, 23 September, Monday

    Time Temperature Precipitation Wind Pressure Humidity
    00:00 +30°C° 0 mm 1 mps 756 mmHg 76%
    01:00 +30°C° 0.1 mm 1 mps 756 mmHg 77%
    02:00 +30°C° 0.1 mm 1 mps 756 mmHg 79%
    03:00 +30°C° 0.1 mm 1 mps 756 mmHg 80%
    04:00 +30°C° 0.6 mm 1 mps 756 mmHg 81%
    05:00 +29°C° 0.6 mm 1 mps 756 mmHg 81%
    06:00 +29°C° 0.6 mm 1 mps 757 mmHg 81%
    07:00 +30°C° 1 mm 2 mps 757 mmHg 76%
    08:00 +32°C° 1 mm 2 mps 757 mmHg 71%
    09:00 +34°C° 1 mm 3 mps 758 mmHg 66%
    10:00 +34°C° 1.4 mm 4 mps 757 mmHg 64%
    11:00 +35°C° 1.4 mm 4 mps 757 mmHg 62%
    12:00 +35°C° 1.4 mm 5 mps 757 mmHg 59%
    13:00 +35°C° 0.8 mm 5 mps 756 mmHg 61%
    14:00 +34°C° 0.8 mm 5 mps 756 mmHg 63%
    15:00 +34°C° 0.8 mm 5 mps 755 mmHg 65%
    16:00 +33°C° 0.3 mm 4 mps 755 mmHg 69%
    17:00 +32°C° 0.3 mm 4 mps 755 mmHg 73%
    18:00 +30°C° 0.3 mm 3 mps 755 mmHg 77%
    19:00 +30°C° 0 mm 3 mps 756 mmHg 79%
    20:00 +30°C° 0 mm 3 mps 757 mmHg 80%
    21:00 +30°C° 0 mm 3 mps 757 mmHg 81%
    22:00 +30°C° 0.4 mm 3 mps 757 mmHg 82%
    23:00 +30°C° 0.4 mm 3 mps 757 mmHg 82%

    Tomorrow, 24 September, Tuesday

    Time Temperature Precipitation Wind Pressure Humidity
    00:00 +29°C° 0.4 mm 3 mps 757 mmHg 83%
    01:00 +29°C° 1 mm 3 mps 757 mmHg 83%
    02:00 +29°C° 1 mm 3 mps 756 mmHg 84%
    03:00 +29°C° 1 mm 3 mps 756 mmHg 84%
    04:00 +29°C° 0.7 mm 3 mps 756 mmHg 85%
    05:00 +29°C° 0.7 mm 3 mps 757 mmHg 85%
    06:00 +29°C° 0.7 mm 2 mps 757 mmHg 85%
    07:00 +30°C° 1.5 mm 3 mps 757 mmHg 81%
    08:00 +30°C° 1.5 mm 4 mps 758 mmHg 78%
    09:00 +32°C° 1.5 mm 5 mps 758 mmHg 74%
    10:00 +32°C° 1.1 mm 5 mps 758 mmHg 74%
    11:00 +32°C° 1.1 mm 4 mps 758 mmHg 73%
    12:00 +32°C° 1.1 mm 4 mps 757 mmHg 73%
    13:00 +33°C° 0.1 mm 4 mps 757 mmHg 72%
    14:00 +33°C° 0.1 mm 4 mps 756 mmHg 71%
    15:00 +33°C° 0.1 mm 4 mps 756 mmHg 70%
    16:00 +31°C° 0 mm 3 mps 756 mmHg 73%
    17:00 +30°C° 0 mm 3 mps 756 mmHg 77%
    18:00 +30°C° 0 mm 2 mps 756 mmHg 80%
    19:00 +29°C° 0.2 mm 3 mps 757 mmHg 82%
    20:00 +29°C° 0.2 mm 3 mps 758 mmHg 83%
    21:00 +28°C° 0.2 mm 3 mps 759 mmHg 85%
    22:00 +28°C° 0.1 mm 3 mps 759 mmHg 85%
    23:00 +28°C° 0.1 mm 3 mps 758 mmHg 86%

    Day after tomorrow, 25 September, Wednesday

    Time Temperature Precipitation Wind Pressure Humidity
    00:00 +28°C° 0.1 mm 3 mps 758 mmHg 86%
    01:00 +28°C° 0 mm 3 mps 758 mmHg 86%
    02:00 +28°C° 0 mm 3 mps 758 mmHg 86%
    03:00 +27°C° 0 mm 3 mps 757 mmHg 86%
    04:00 +27°C° 0 mm 3 mps 758 mmHg 86%
    05:00 +27°C° 0 mm 2 mps 758 mmHg 86%
    06:00 +27°C° 0 mm 2 mps 758 mmHg 85%
    07:00 +28°C° 0.2 mm 2 mps 759 mmHg 83%
    08:00 +29°C° 0.2 mm 3 mps 759 mmHg 81%
    09:00 +29°C° 0.2 mm 3 mps 760 mmHg 78%
    10:00 +30°C° 0.6 mm 3 mps 760 mmHg 77%
    11:00 +30°C° 0.6 mm 3 mps 759 mmHg 76%
    12:00 +30°C° 0.6 mm 3 mps 759 mmHg 75%
    13:00 +30°C° 0.1 mm 2 mps 759 mmHg 76%
    14:00 +30°C° 0.1 mm 2 mps 758 mmHg 78%
    15:00 +29°C° 0.1 mm 1 mps 758 mmHg 79%
    16:00 +29°C° 0 mm 2 mps 758 mmHg 80%
    17:00 +29°C° 0 mm 2 mps 758 mmHg 80%
    18:00 +28°C° 0 mm 2 mps 758 mmHg 81%
    19:00 +28°C° 0 mm 2 mps 759 mmHg 81%
    20:00 +28°C° 0 mm 2 mps 759 mmHg 81%
    21:00 +28°C° 0 mm 2 mps 760 mmHg 81%
    22:00 +28°C° 0.5 mm 2 mps 760 mmHg 83%
    23:00 +28°C° 0.5 mm 1 mps 760 mmHg 84%

    26 September, Thursday

    Time Temperature Precipitation Wind Pressure Humidity
    00:00 +28°C° 0.5 mm 1 mps 760 mmHg 86%
    01:00 +27°C° 1.6 mm 1 mps 760 mmHg 88%
    02:00 +27°C° 1.6 mm 1 mps 759 mmHg 91%
    03:00 +27°C° 1.6 mm 2 mps 759 mmHg 93%
    04:00 +27°C° 0.9 mm 1 mps 759 mmHg 93%
    05:00 +27°C° 0.9 mm 1 mps 759 mmHg 93%
    06:00 +27°C° 0.9 mm 1 mps 760 mmHg 93%
    07:00 +27°C° 3 mm 1 mps 760 mmHg 93%
    08:00 +27°C° 3 mm 1 mps 761 mmHg 93%
    09:00 +27°C° 3 mm 2 mps 761 mmHg 93%
    10:00 +27°C° 0.9 mm 2 mps 761 mmHg 92%
    11:00 +27°C° 0.9 mm 2 mps 760 mmHg 91%
    12:00 +27°C° 0.9 mm 2 mps 760 mmHg 90%
    13:00 +27°C° 0.1 mm 2 mps 759 mmHg 89%
    14:00 +28°C° 0.1 mm 1 mps 758 mmHg 88%
    15:00 +28°C° 0.1 mm 1 mps 758 mmHg 87%
    16:00 +28°C° 0.6 mm 1 mps 758 mmHg 88%
    17:00 +27°C° 0.6 mm 1 mps 758 mmHg 89%
    18:00 +27°C° 0.6 mm 1 mps 758 mmHg 90%
    19:00 +27°C° 1.1 mm 1 mps 758 mmHg 90%
    20:00 +27°C° 1.1 mm 1 mps 759 mmHg 90%
    21:00 +27°C° 1.1 mm 1 mps 759 mmHg 90%
    22:00 +27°C° 0.1 mm 1 mps 759 mmHg 91%
    23:00 +26°C° 0.1 mm 1 mps 759 mmHg 92%

    27 September, Friday

    Time Temperature Precipitation Wind Pressure Humidity
    00:00 +26°C° 0.1 mm 1 mps 759 mmHg 92%
    01:00 +26°C° 0 mm 1 mps 759 mmHg 93%
    02:00 +26°C° 0 mm 1 mps 758 mmHg 93%
    03:00 +26°C° 0 mm 1 mps 758 mmHg 93%
    04:00 +26°C° 0.1 mm 2 mps 758 mmHg 93%
    05:00 +26°C° 0.1 mm 2 mps 758 mmHg 93%
    06:00 +26°C° 0.1 mm 2 mps 758 mmHg 93%
    07:00 +27°C° 0 mm 2 mps 758 mmHg 90%
    08:00 +27°C° 0 mm 3 mps 759 mmHg 88%
    09:00 +28°C° 0 mm 3 mps 759 mmHg 86%
    10:00 +29°C° 0.4 mm 3 mps 759 mmHg 81%
    11:00 +30°C° 0.4 mm 3 mps 758 mmHg 76%
    12:00 +32°C° 0.4 mm 4 mps 758 mmHg 71%
    13:00 +32°C° 0.5 mm 4 mps 757 mmHg 70%
    14:00 +33°C° 0.5 mm 4 mps 756 mmHg 69%
    15:00 +33°C° 0.5 mm 4 mps 755 mmHg 68%
    16:00 +31°C° 0.1 mm 3 mps 755 mmHg 73%
    17:00 +30°C° 0.1 mm 3 mps 755 mmHg 77%
    18:00 +29°C° 0.1 mm 2 mps 755 mmHg 82%
    19:00 +28°C° 0 mm 2 mps 756 mmHg 83%
    20:00 +28°C° 0 mm 2 mps 756 mmHg 84%
    21:00 +28°C° 0 mm 2 mps 757 mmHg 85%
    22:00 +28°C° 0.3 mm 2 mps 756 mmHg 86%
    23:00 +27°C° 0.3 mm 2 mps 756 mmHg 86%

    28 September, Saturday

    Time Temperature Precipitation Wind Pressure Humidity
    00:00 +27°C° 0.3 mm 2 mps 756 mmHg 86%
    01:00 +27°C° 0 mm 2 mps 756 mmHg 87%
    02:00 +27°C° 0 mm 2 mps 755 mmHg 88%
    03:00 +27°C° 0 mm 2 mps 755 mmHg 89%
    04:00 +27°C° 0 mm 2 mps 755 mmHg 89%
    05:00 +27°C° 0 mm 2 mps 755 mmHg 89%
    06:00 +26°C° 0 mm 2 mps 755 mmHg 89%
    07:00 +28°C° 0 mm 2 mps 755 mmHg 83%
    08:00 +29°C° 0 mm 3 mps 755 mmHg 77%
    09:00 +31°C° 0 mm 3 mps 756 mmHg 70%
    10:00 +32°C° 1.1 mm 5 mps 755 mmHg 70%
    11:00 +32°C° 1.1 mm 6 mps 755 mmHg 70%
    12:00 +32°C° 1.1 mm 7 mps 755 mmHg 70%
    13:00 +32°C° 0.7 mm 8 mps 754 mmHg 70%
    14:00 +32°C° 0.7 mm 8 mps 753 mmHg 71%
    15:00 +31°C° 0.7 mm 9 mps 753 mmHg 71%
    16:00 +31°C° 0.1 mm 8 mps 752 mmHg 73%
    17:00 +29°C° 0.1 mm 7 mps 752 mmHg 76%
    18:00 +28°C° 0.1 mm 6 mps 752 mmHg 79%
    19:00 +28°C° 0.1 mm 6 mps 753 mmHg 79%
    20:00 +28°C° 0.1 mm 6 mps 753 mmHg 79%
    21:00 +28°C° 0.1 mm 7 mps 753 mmHg 79%
    22:00 +27°C° 0.5 mm 8 mps 753 mmHg 80%
    23:00 +27°C° 0.5 mm 9 mps 753 mmHg 82%
    Show more